MMS 3

Last updated on Thu Sep 10 2026 00:02:50 GMT+0000 (Coordinated Universal Time)

1 40484U 15011C 26252.58335648 -.00002028 00000+0 00000+0 0 9998 2 40484 72.8923 347.8126 8259043 169.2660 267.6024 0.28291475 1405
UTC large
Height (km)
Speed (km/s)
/
Latitude / Longitude
Inclination (degrees)
Orbital Period (minutes)
Azimuth
Elevation
Range (km)
Doppler Factor

Next 0 passes for location: London (51.5072 / 0.1276)

No passes found over London.
MMS 3